RH
6 5 5 5 5 5 5 4 4 4 4 4 4 5 6 7 8 9 10 11 12 15 18 23 27 30 52 61 71 82 86 86 83 85 88 90 90 93 89 85 81 81 72 71 64
16 11 7 7 6 6 6 5 4 4 4 4 4 4 5 6 7 8 9 11 10 13 15 18 22 33 51 58 66 84 84 79 77 84 87 88 93 90 89 86 87 83 78 70 65
26 23 18 11 9 8 7 6 6 5 4 4 4 4 4 5 7 12 9 10 13 11 13 15 20 37 47 53 66 79 80 70 75 82 84 83 88 89 87 90 89 83 80 73 66
30 28 25 22 15 11 9 8 7 6 5 5 4 4 4 5 14 14 10 10 14 10 12 13 24 36 46 52 65 75 68 65 70 77 83 87 87 88 87 91 88 81 82 78 71
27 27 28 26 23 17 14 11 9 8 6 5 5 5 5 5 7 15 14 15 15 12 9 13 23 37 47 50 63 71 64 56 57 61 77 83 87 89 90 90 93 88 84 79 77
19 19 23 27 26 22 18 16 12 9 8 6 5 6 6 7 8 13 15 15 18 16 9 13 18 28 43 47 59 57 54 48 45 51 70 81 83 83 89 90 91 89 87 79 76
20 18 16 20 23 24 22 20 18 13 9 7 7 8 8 7 9 11 14 17 18 17 12 12 18 33 41 50 53 45 44 40 50 57 75 84 84 83 79 85 93 89 85 78 73
18 18 18 16 20 22 20 22 20 19 12 9 9 12 10 11 13 12 13 17 21 19 15 15 27 32 38 47 43 41 39 34 54 63 74 79 82 78 84 86 86 87 78 72 70
13 14 16 17 19 22 20 20 22 21 17 11 12 16 14 14 12 10 12 17 21 20 17 24 33 33 33 36 40 41 42 36 55 69 74 75 78 81 81 79 78 78 71 65 67
11 11 13 16 18 22 20 24 24 24 19 18 15 18 16 14 12 10 15 18 20 20 22 31 36 32 30 32 39 38 41 40 40 63 64 67 68 79 80 78 80 76 65 61 63
9 9 10 14 17 22 27 28 30 30 26 19 18 16 17 15 13 13 14 20 23 19 23 30 37 34 31 28 30 31 38 43 42 41 48 49 58 66 80 79 77 80 67 58 58
9 9 9 10 16 20 31 31 31 31 29 23 22 20 18 17 16 13 15 22 22 20 27 35 33 31 31 30 26 30 34 44 42 41 37 41 59 67 81 83 81 77 71 57 52
8 8 8 8 13 23 31 34 31 33 31 26 23 21 18 16 17 18 19 22 23 23 28 33 28 30 30 32 27 25 31 43 43 37 43 54 68 75 79 81 79 76 74 67 51
9 9 8 8 15 25 33 35 35 37 35 27 25 24 20 16 15 22 21 24 26 27 29 29 29 28 30 30 30 27 31 37 35 31 29 51 72 78 80 79 73 75 79 71 59
9 10 8 12 20 25 38 41 36 34 36 24 25 19 19 17 19 23 25 25 26 28 31 30 26 29 27 26 28 26 26 34 34 29 36 41 45 58 80 79 72 73 77 71 60
12 12 11 20 22 26 38 42 34 37 39 27 22 20 19 19 21 21 20 25 26 27 27 24 22 24 24 26 25 26 25 26 34 32 31 29 31 40 76 62 62 65 71 70 60
18 14 15 19 25 27 33 31 35 45 37 32 25 22 20 20 18 20 18 18 20 27 26 23 23 23 20 22 23 23 25 28 29 35 32 29 28 26 45 47 47 52 61 65 63
27 23 17 20 21 32 35 41 45 41 40 35 28 22 22 21 20 19 20 21 20 18 23 23 24 22 20 21 23 24 25 28 28 34 35 32 33 29 32 39 40 40 54 65 59
31 25 20 21 31 39 44 49 46 43 40 33 30 30 30 25 22 23 25 25 23 22 22 22 23 24 21 23 24 25 28 25 28 29 29 33 31 31 36 35 37 40 37 52 56
29 24 24 31 35 42 45 52 45 45 40 35 35 35 35 32 29 27 28 28 25 23 22 23 21 23 24 25 26 27 27 28 30 32 30 29 32 38 39 38 41 38 38 41 49
30 31 33 35 36 37 49 55 50 46 43 40 40 39 38 36 35 33 33 30 28 26 23 22 22 23 23 28 29 31 31 32 32 35 38 34 33 38 40 37 41 41 35 37 37
35 37 35 34 39 42 46 52 55 53 47 45 44 43 42 39 37 34 37 36 32 29 27 25 24 27 28 28 27 28 31 32 35 34 40 39 39 33 39 39 40 43 40 31 30
30 32 37 37 43 42 42 43 43 45 53 51 50 47 45 44 42 38 35 34 31 28 29 27 29 28 29 30 28 30 30 29 31 35 39 40 35 32 37 45 45 44 44 39 37
27 31 28 33 39 39 40 44 41 35 39 47 49 44 45 49 43 45 43 39 36 35 32 30 33 31 32 35 35 34 34 32 32 38 38 34 31 40 45 46 46 48 54 51 49
24 28 27 34 33 39 42 42 38 36 33 34 37 40 39 46 46 48 44 40 36 36 34 30 33 29 30 31 34 36 37 37 36 36 39 33 35 49 49 50 50 52 55 58 59
27 29 29 31 30 31 36 39 33 35 33 32 34 31 28 34 37 41 40 39 36 33 32 34 39 34 33 28 27 29 30 32 35 39 38 39 39 49 52 52 48 49 57 60 61
28 29 28 33 35 34 37 35 35 35 34 33 31 32 31 30 30 29 29 29 33 35 36 39 43 43 41 32 26 27 31 31 42 48 46 44 49 49 50 49 51 50 52 58 59